This is the latest recevied weather packets stored in our database for station/object IW4ENL-7. If no packets are shown the sender has not sent any weather packets the latest 1 day(s).
| Time | Temp. | Humidity | Pressure | Rain* | Wind** | Luminosity | Snow |
|---|---|---|---|---|---|---|---|
| 1836274842 | 17.78° C | 64% | 974 hPa | - | 0.89 m/s, 266° | - | - |
| 1836274659 | 17.78° C | 64% | 974 hPa | - | 0.45 m/s, 279° | - | - |
| 1836274476 | 17.78° C | 64% | 974 hPa | - | 0 m/s | - | - |
| 1836274458 | 17.78° C | 64% | 974 hPa | - | 0 m/s | - | - |
| 1836274294 | 17.78° C | 65% | 974 hPa | - | 0 m/s | - | - |
| 1836274275 | 17.78° C | 64% | 974 hPa | - | 0 m/s | - | - |
| 1836274111 | 17.78° C | 65% | 974 hPa | - | 0 m/s | - | - |
| 1836273928 | 17.78° C | 65% | 974 hPa | - | 0 m/s | - | - |
| 1778022566 | 11.11° C | 70% | 960 hPa | - | 2.24 m/s, 225° | - | - |
| 1778022200 | 10.56° C | 70% | 960 hPa | - | 2.24 m/s, 243° | - | - |
| 1778022017 | 10.56° C | 71% | 960 hPa | - | 1.34 m/s, 208° | - | - |
| 1778021834 | 10.56° C | 71% | 960 hPa | - | 2.24 m/s, 161° | - | - |
| 1778021651 | 10.56° C | 71% | 960 hPa | - | 3.13 m/s, 190° | - | - |
| 1778021285 | 10.56° C | 70% | 960 hPa | - | 0.89 m/s, 211° | - | - |
| 1778021103 | 10.56° C | 70% | 960 hPa | - | 3.58 m/s, 180° | - | - |
| 1778020920 | 10° C | 68% | 960 hPa | - | 4.47 m/s, 180° | - | - |
| 1778020737 | 10° C | 66% | 960 hPa | - | 1.34 m/s, 166° | - | - |
| 1778020554 | 10° C | 68% | 960 hPa | - | 1.79 m/s, 166° | - | - |
| 1778020371 | 10° C | 69% | 960 hPa | - | 2.24 m/s, 180° | - | - |
| 1778020188 | 10° C | 67% | 960 hPa | - | 1.79 m/s, 175° | - | - |
| 1778019822 | 10° C | 65% | 960 hPa | - | 1.34 m/s, 189° | - | - |
| 1778019457 | 10° C | 61% | 960 hPa | - | 0 m/s | - | - |
| 1778019274 | 10° C | 62% | 960 hPa | - | 0 m/s | - | - |
| 1778019091 | 10° C | 62% | 960 hPa | - | 0.45 m/s, 0° | - | - |
| 1778018908 | 10° C | 62% | 960 hPa | - | 0 m/s | - | - |
* Rain since midnight (hover to see other rain measurements)
** Current wind speed in m/s (hover to see current wind gust speed)